NOAA NWS Hourly Roundups by Site

Regional Weather Roundup for Norman, OK

To Select Another Site Choose from List

Select Site:  

000
ASUS44 KOUN 160510
RWROK

WEATHER ROUNDUP FOR OKLAHOMA
NATIONAL WEATHER SERVICE NORMAN OK
1200 AM CDT SAT OCT 16 2021

NOTE: "FAIR" INDICATES FEW OR NO CLOUDS BELOW 12,000 FEET WITH NO
      SIGNIFICANT WEATHER AND/OR OBSTRUCTIONS TO VISIBILITY.

OKZ001>007-009>012-014-015-017-160600-
NORTHWEST OKLAHOMA AND THE PANHANDLE

CITY           SKY/WX    TMP DP  RH WIND       PRES   REMARKS
GAGE           CLEAR     38  34  85 SW6       30.33R WCI  33
GUYMON         CLEAR     38  29  70 NE10      30.35R WCI  31
ENID/WOODRING  CLEAR     46  39  76 NW6       30.28S
$$

OKZ016-021>023-033>039-044-045-160600-
SOUTHWEST OKLAHOMA

CITY           SKY/WX    TMP DP  RH WIND       PRES   REMARKS
LAWTON/FT SILL CLEAR     52  37  58 N7        30.30R HAZE
FREDERICK      CLEAR     50  38  63 N8        30.30R
CLINTON        CLEAR     46  36  68 NW5       30.34R
HOBART         CLEAR     50  36  58 N3        30.33R
ALTUS AFB      CLEAR     47  37  67 NW3       30.32R
$$

OKZ018>020-024>031-160600-
CENTRAL OKLAHOMA

CITY           SKY/WX    TMP DP  RH WIND       PRES   REMARKS
OKLAHOMA CITY  CLEAR     51  39  63 NW5       30.29S
OKC/WILEY POST CLEAR     51  40  65 NW3       30.29S
OKC/TINKER AFB CLEAR     51  40  65 N6        30.27S
STILLWATER     CLEAR     50  41  71 NW3       30.28R
GUTHRIE        CLEAR     44  43  96 CALM      30.29S
$$

OKZ008-013-054>072-160600-
NORTHEAST OKLAHOMA

CITY           SKY/WX    TMP DP  RH WIND       PRES   REMARKS
TULSA          CLEAR     50  42  74 NW5       30.24R
TULSA/JONES    CLEAR     55  40  56 NW5       30.25S
PONCA CITY     CLEAR     47  40  76 CALM      30.27S
BARTLESVILLE   CLEAR     47  40  76 CALM      30.26S
$$

OKZ032-040>043-046>053-073>077-160600-
SOUTH CENTRAL/SOUTHEAST OKLAHOMA

CITY           SKY/WX    TMP DP  RH WIND       PRES   REMARKS
ARDMORE/DWNTWN CLEAR     49  45  84 NW6       30.28R
MCALESTER      PTCLDY    47  45  93 CALM      30.25R
$$



 

View Past Reports for Norman, OK.

Products Courtesy of NOAA-NWS
NWS Information Parsing Script by Ken True at Saratoga Weather - Script by SE Lincoln Weather.